Weather History for KGBD - November, 2012

Change the Weather History Date:

Sunday, November 25, 2012

  Actual Average Record
Temperature  
Mean Temperature 44 °F -  
Max Temperature 55 °F 51 °F 74 °F (1960)
Min Temperature 32 °F 31 °F 12 °F (1993)
Degree Days  
Heating Degree Days 22    
Moisture  
Dew Point 27 °F    
Average Humidity 55    
Maximum Humidity 75    
Minimum Humidity 44    
Precipitation  
Precipitation 0.00 in - - ()
Sea Level Pressure  
Sea Level Pressure 29.92 in    
Wind  
Wind Speed 10 mph (NE)    
Max Wind Speed 17 mph    
Max Gust Speed 21 mph    
Visibility 10 miles    
Events      
Averages and records for this station are not official NWS values.
T = Trace of Precipitation, MM = Missing Value Source: NWS Daily Summary

Daily Weather History Graph

Daily Weather History Graph

Search for Another Location

Airport or City:

Trip Planner

Search our weather history database for the weather conditions in past years. The results will help you decide how hot, cold, wet, or windy it might be!

Date:

Astronomy

Nov. 25, 2012 Rise Set
Actual Time 7:28 AM CST 5:16 PM CST
Civil Twilight 6:59 AM CST 5:45 PM CST
Nautical Twilight 6:26 AM CST 6:18 PM CST
Astronomical Twilight 5:54 AM CST 6:49 PM CST
Moon 3:33 PM CST (11/25) 4:45 AM CST (11/25)
Length of Visible Light 10h 46m
Length of Day
9h 48m
Waxing Gibbous, 93% of the Moon is Illuminated
Nov 25
Waxing Gibbous
Nov 28
Full
Dec 6
Last Quarter
Dec 13
New
Dec 19
First Quarter

Hourly Weather History & Observations

Time (CST) Temp. Windchill Dew Point Humidity Pressure Visibility Wind Dir Wind Speed Gust Speed Precip Events Conditions
12:15 AM 42.8 °F 37.0 °F 23.0 °F 46% 29.86 in 10.0 mi WSW 10.4 mph - N/A   Clear
12:35 AM 39.2 °F 33.6 °F 23.0 °F 52% 29.87 in 10.0 mi West 8.1 mph - N/A   Clear
12:55 AM 35.6 °F 31.7 °F 21.2 °F 56% 29.87 in 10.0 mi WSW 4.6 mph - N/A   Clear
1:15 AM 37.4 °F 31.4 °F 21.2 °F 52% 29.86 in 10.0 mi WSW 8.1 mph - N/A   Clear
1:35 AM 35.6 °F 31.7 °F 21.2 °F 56% 29.86 in 10.0 mi WSW 4.6 mph - N/A   Clear
1:55 AM 35.6 °F 31.7 °F 23.0 °F 60% 29.87 in 10.0 mi West 4.6 mph - N/A   Clear
2:15 AM 33.8 °F 27.7 °F 19.4 °F 56% 29.86 in 10.0 mi West 6.9 mph - N/A   Clear
2:35 AM 33.8 °F 27.0 °F 21.2 °F 60% 29.86 in 10.0 mi West 8.1 mph - N/A   Clear
2:55 AM 32.0 °F 24.8 °F 21.2 °F 64% 29.88 in 10.0 mi NW 8.1 mph - N/A   Clear
3:15 AM 32.0 °F 28.7 °F 21.2 °F 64% 29.88 in 10.0 mi NW 3.5 mph - N/A   Clear
3:35 AM 35.6 °F 31.7 °F 21.2 °F 56% 29.88 in 10.0 mi NNW 4.6 mph - N/A   Clear
3:55 AM 35.6 °F 31.7 °F 21.2 °F 56% 29.88 in 10.0 mi NNW 4.6 mph - N/A   Clear
4:15 AM 33.8 °F 26.4 °F 21.2 °F 60% 29.88 in 10.0 mi North 9.2 mph - N/A   Clear
4:35 AM 33.8 °F 26.4 °F 23.0 °F 65% 29.88 in 10.0 mi North 9.2 mph - N/A   Clear
4:55 AM 33.8 °F 26.4 °F 23.0 °F 65% 29.89 in 10.0 mi North 9.2 mph - N/A   Clear
5:15 AM 33.8 °F 25.8 °F 23.0 °F 65% 29.89 in 10.0 mi North 10.4 mph - N/A   Clear
5:35 AM 33.8 °F 26.4 °F 23.0 °F 65% 29.89 in 10.0 mi North 9.2 mph - N/A   Clear
5:55 AM 32.0 °F 24.2 °F 21.2 °F 64% 29.90 in 10.0 mi North 9.2 mph - N/A   Clear
6:15 AM 33.8 °F 26.4 °F 21.2 °F 60% 29.90 in 10.0 mi North 9.2 mph - N/A   Clear
6:35 AM 32.0 °F 23.6 °F 21.2 °F 64% 29.91 in 10.0 mi North 10.4 mph - N/A   Clear
6:55 AM 33.8 °F 25.8 °F 21.2 °F 60% 29.92 in 10.0 mi North 10.4 mph - N/A   Clear
7:15 AM 33.8 °F 25.8 °F 21.2 °F 60% 29.92 in 10.0 mi North 10.4 mph - N/A   Clear
7:35 AM 33.8 °F 26.4 °F 21.2 °F 60% 29.93 in 10.0 mi North 9.2 mph - N/A   Clear
7:55 AM 33.8 °F 27.7 °F 21.2 °F 60% 29.94 in 10.0 mi North 6.9 mph - N/A   Clear
8:15 AM 35.6 °F 29.9 °F 23.0 °F 60% 29.95 in 10.0 mi North 6.9 mph - N/A   Clear
8:35 AM 37.4 °F 30.8 °F 24.8 °F 60% 29.95 in 10.0 mi North 9.2 mph - N/A   Clear
8:55 AM 39.2 °F 32.5 °F 24.8 °F 56% 29.96 in 10.0 mi NNE 10.4 mph - N/A   Clear
9:15 AM 42.8 °F 38.0 °F 26.6 °F 53% 29.96 in 10.0 mi NNE 8.1 mph - N/A   Clear
9:35 AM 44.6 °F 38.4 °F 26.6 °F 49% 29.96 in 10.0 mi NE 12.7 mph - N/A   Clear
9:55 AM 46.4 °F 41.1 °F 26.6 °F 46% 29.97 in 10.0 mi NNE 11.5 mph - N/A   Clear
10:15 AM 48.2 °F - 28.4 °F 46% 29.97 in 10.0 mi NE 16.1 mph - N/A   Clear
10:35 AM 48.2 °F - 28.4 °F 46% 29.96 in 10.0 mi NE 16.1 mph - N/A   Clear
10:55 AM 50.0 °F - 30.2 °F 47% 29.96 in 10.0 mi ENE 17.3 mph - N/A   Clear
11:15 AM 51.8 °F - 30.2 °F 44% 29.95 in 10.0 mi NE 15.0 mph 19.6 mph N/A   Clear
11:35 AM 51.8 °F - 30.2 °F 44% 29.95 in 10.0 mi NE 15.0 mph 20.7 mph N/A   Clear
11:55 AM 53.6 °F - 32.0 °F 44% 29.94 in 10.0 mi NE 16.1 mph - N/A   Clear
12:15 PM 53.6 °F - 32.0 °F 44% 29.93 in 10.0 mi NE 12.7 mph - N/A   Clear
12:35 PM 53.6 °F - 32.0 °F 44% 29.92 in 10.0 mi NE 15.0 mph - N/A   Clear
12:55 PM 53.6 °F - 33.8 °F 47% 29.91 in 10.0 mi ENE 13.8 mph 19.6 mph N/A   Clear
1:15 PM 55.4 °F - 33.8 °F 44% 29.90 in 10.0 mi NE 15.0 mph - N/A   Clear
1:35 PM 55.4 °F - 33.8 °F 44% 29.89 in 10.0 mi ENE 13.8 mph - N/A   Clear
1:55 PM 55.4 °F - 33.8 °F 44% 29.89 in 10.0 mi ENE 15.0 mph - N/A   Clear
2:15 PM 55.4 °F - 33.8 °F 44% 29.89 in 10.0 mi NE 13.8 mph - N/A   Clear
2:35 PM 55.4 °F - 33.8 °F 44% 29.88 in 10.0 mi NE 13.8 mph - N/A   Clear
2:55 PM 55.4 °F - 33.8 °F 44% 29.88 in 10.0 mi NE 15.0 mph - N/A   Clear
3:15 PM 55.4 °F - 33.8 °F 44% 29.88 in 10.0 mi ENE 13.8 mph - N/A   Clear
3:35 PM 55.4 °F - 33.8 °F 44% 29.88 in 10.0 mi ENE 13.8 mph 17.3 mph N/A   Clear
3:55 PM 55.4 °F - 33.8 °F 44% 29.88 in 10.0 mi ENE 12.7 mph - N/A   Clear
4:15 PM 55.4 °F - 33.8 °F 44% 29.89 in 10.0 mi ENE 12.7 mph - N/A   Clear
4:35 PM 53.6 °F - 33.8 °F 47% 29.89 in 10.0 mi ENE 13.8 mph - N/A   Clear
4:55 PM 51.8 °F - 32.0 °F 47% 29.89 in 10.0 mi ENE 11.5 mph - N/A   Clear
5:15 PM 51.8 °F - 32.0 °F 47% 29.90 in 10.0 mi ENE 10.4 mph - N/A   Clear
5:35 PM 48.2 °F - 30.2 °F 50% 29.90 in 10.0 mi ENE 9.2 mph - N/A   Clear
5:55 PM 46.4 °F 42.4 °F 30.2 °F 53% 29.90 in 10.0 mi East 8.1 mph - N/A   Clear
6:15 PM 44.6 °F 40.2 °F 30.2 °F 57% 29.90 in 10.0 mi East 8.1 mph - N/A   Clear
6:35 PM 44.6 °F 40.7 °F 30.2 °F 57% 29.91 in 10.0 mi East 6.9 mph - N/A   Clear
6:55 PM 42.8 °F 38.6 °F 30.2 °F 61% 29.92 in 10.0 mi East 6.9 mph - N/A   Clear
7:15 PM 42.8 °F 38.0 °F 30.2 °F 61% 29.92 in 10.0 mi East 8.1 mph - N/A   Clear
7:35 PM 42.8 °F 38.6 °F 30.2 °F 61% 29.93 in 10.0 mi East 6.9 mph - N/A   Clear
7:55 PM 42.8 °F 38.6 °F 30.2 °F 61% 29.93 in 10.0 mi East 6.9 mph - N/A   Clear
8:15 PM 42.8 °F 38.0 °F 30.2 °F 61% 29.94 in 10.0 mi ENE 8.1 mph - N/A   Clear
8:35 PM 42.8 °F 37.0 °F 30.2 °F 61% 29.94 in 10.0 mi ENE 10.4 mph - N/A   Clear
8:55 PM 42.8 °F 36.2 °F 30.2 °F 61% 29.95 in 10.0 mi ENE 12.7 mph - N/A   Clear
9:15 PM 42.8 °F 36.2 °F 28.4 °F 57% 29.96 in 10.0 mi ENE 12.7 mph - N/A   Clear
9:35 PM 39.2 °F 32.0 °F 28.4 °F 65% 29.97 in 10.0 mi NE 11.5 mph - N/A   Clear
9:55 PM 39.2 °F 32.5 °F 26.6 °F 61% 29.98 in 10.0 mi NE 10.4 mph - N/A   Clear
10:15 PM 37.4 °F 30.3 °F 26.6 °F 65% 29.99 in 10.0 mi NE 10.4 mph - N/A   Clear
10:35 PM 37.4 °F 29.8 °F 26.6 °F 65% 29.99 in 10.0 mi NE 11.5 mph - N/A   Clear
10:55 PM 35.6 °F 28.0 °F 26.6 °F 70% 30.00 in 10.0 mi NNE 10.4 mph - N/A   Clear
11:15 PM 35.6 °F 28.0 °F 26.6 °F 70% 30.01 in 10.0 mi NE 10.4 mph - N/A   Clear
11:35 PM 35.6 °F 28.0 °F 26.6 °F 70% 30.01 in 10.0 mi NE 10.4 mph - N/A   Clear
11:55 PM 33.8 °F 24.3 °F 26.6 °F 75% 30.01 in 10.0 mi NE 13.8 mph - N/A   Clear